San Antonio, Texas, United States (78266)
Lat: 29.42N, Lon: 98.49W
Wx Zone: TXZ206
Local Info
Past Weather Observations for Today

NOTE: This archive is for the closest National Weather Service station to San Antonio. Information may differ from the station used for current weather conditions.

Click here for Long-term Archive

Time Weather Temperature Dewpoint Humidity Pressure Winds Precip Visibility
09:58
Mostly Cloudy
70°F / 21°C 61°F / 16°C 73% 30.15 in
(1021 mb)
E 5.8 mph
(E 9 kph)
- 10SM
09:51
Mostly Cloudy
70°F / 21°C 61°F / 16°C 73% 30.15 in
(1021 mb)
Variable 4.6 mph
(Variable 7 kph)
- 10SM
09:43
Mostly Cloudy
68°F / 20°C 61°F / 16°C 78% 30.15 in
(1021 mb)
ENE 5.8 mph
(ENE 9 kph)
- 10SM
09:32
Mostly Cloudy
68°F / 20°C 61°F / 16°C 78% 30.15 in
(1021 mb)
ENE 6.9 mph
(ENE 11 kph)
- 10SM
08:58
Overcast
66°F / 19°C 61°F / 16°C 83% 30.15 in
(1021 mb)
NE 4.6 mph
(NE 7 kph)
- 10SM
08:48
Overcast
66°F / 19°C 59°F / 15°C 78% 30.15 in
(1021 mb)
ENE 5.8 mph
(ENE 9 kph)
- 10SM
08:28
Overcast
66°F / 19°C 59°F / 15°C 78% 30.15 in
(1021 mb)
ENE 5.8 mph
(ENE 9 kph)
- 10SM
07:58
Overcast
64°F / 18°C 59°F / 15°C 83% 30.15 in
(1021 mb)
NE 5.8 mph
(NE 9 kph)
- 10SM
06:58
Overcast
64°F / 18°C 61°F / 16°C 88% 30.12 in
(1020 mb)
ENE 2.3 mph
(ENE 4 kph)
- 9SM
06:50
Overcast
64°F / 18°C 61°F / 16°C 88% 30.12 in
(1020 mb)
ENE 2.3 mph
(ENE 4 kph)
- 10SM
06:35
Mostly Cloudy
63°F / 17°C 59°F / 15°C 88% 30.12 in
(1020 mb)
ENE 3.5 mph
(ENE 6 kph)
- 10SM
06:25
Mostly Cloudy
63°F / 17°C 59°F / 15°C 88% 30.12 in
(1020 mb)
ESE 2.3 mph
(ESE 4 kph)
- 10SM
05:58
Mostly Cloudy
64°F / 18°C 61°F / 16°C 88% 30.12 in
(1020 mb)
E 3.5 mph
(E 6 kph)
- 10SM
05:54
Mostly Cloudy
64°F / 18°C 61°F / 16°C 88% 30.12 in
(1020 mb)
E 3.5 mph
(E 6 kph)
- 10SM
05:44
Overcast
64°F / 18°C 61°F / 16°C 88% 30.12 in
(1020 mb)
E 4.6 mph
(E 7 kph)
- 10SM
05:34
Overcast
64°F / 18°C 63°F / 17°C 94% 30.12 in
(1020 mb)
E 3.5 mph
(E 6 kph)
- 10SM
05:24
Overcast
66°F / 19°C 63°F / 17°C 88% 30.12 in
(1020 mb)
E 5.8 mph
(E 9 kph)
- 10SM
05:19
Overcast
66°F / 19°C 63°F / 17°C 88% 30.12 in
(1020 mb)
E 5.8 mph
(E 9 kph)
- 10SM
05:04
Overcast
66°F / 19°C 63°F / 17°C 88% 30.09 in
(1019 mb)
E 8.1 mph
(E 13 kph)
- 9SM
04:59
Overcast
66°F / 19°C 63°F / 17°C 88% 30.09 in
(1019 mb)
ENE 8.1 mph
(ENE 13 kph)
- 10SM
04:58
Overcast
66°F / 19°C 63°F / 17°C 88% 30.09 in
(1019 mb)
ENE 8.1 mph
(ENE 13 kph)
- 10SM
04:33
Overcast
66°F / 19°C 63°F / 17°C 88% 30.09 in
(1019 mb)
ENE 8.1 mph
(ENE 13 kph)
- 10SM
04:13
Overcast
64°F / 18°C 63°F / 17°C 94% 30.09 in
(1019 mb)
ENE 4.6 mph
(ENE 7 kph)
- 10SM
04:08
Mostly Cloudy
64°F / 18°C 63°F / 17°C 94% 30.09 in
(1019 mb)
ENE 5.8 mph
(ENE 9 kph)
- 10SM
03:58
Mostly Cloudy
66°F / 19°C 63°F / 17°C 88% 30.09 in
(1019 mb)
NE 4.6 mph
(NE 7 kph)
- 10SM
03:18
Overcast
66°F / 19°C 63°F / 17°C 88% 30.09 in
(1019 mb)
NE 3.5 mph
(NE 6 kph)
- 10SM
02:58
Overcast
66°F / 19°C 63°F / 17°C 88% 30.09 in
(1019 mb)
NNE 3.5 mph
(NNE 6 kph)
- 10SM
02:43
Mostly Cloudy
64°F / 18°C 63°F / 17°C 94% 30.09 in
(1019 mb)
NE 2.3 mph
(NE 4 kph)
- 10SM
01:58
Clear
64°F / 18°C 61°F / 16°C 88% 30.09 in
(1019 mb)
NE 3.5 mph
(NE 6 kph)
- 10SM
00:58
Clear
66°F / 19°C 61°F / 16°C 83% 30.12 in
(1020 mb)
ENE 3.5 mph
(ENE 6 kph)
- 10SM
Time Weather Temperature Dewpoint Humidity Pressure Winds Precip Visibility


Weather for websites

WeatherForYou.com, LLC is not responsible for any damages or problems caused by this service. Current weather conditions are obtained from the closest station including government and personal stations which may have varying degrees of accuracy. Weather forecasts are derived from the NOAA NDFD. Like all things, this site belongs to Jesus Christ... He just trusts me to maintain it. If you have any questions or comments email webmaster@weatherforyou.com

Copyright © 2014, WeatherForYou.com LLC. All rights reserved.